SL-16 DEB, 26968

Orbit data source: Space-Track

SL-16 DEB, 26968 is space debris in LEO originally from a launch on Fri, 26 Mar 1993 UTC launched from the Tyuratam Missile And Space Complex (TTMTR). Debris objects in space refer to the collection of defunct objects orbiting the Earth. Examples of debris include non-operational satellites, rocket bodies, and fragments generated from explosions, collisions, or faulty payload assembly.

Loading next visibility...
Identifier
26968, 1993-016AJ
Orbit
LEO
Country
Flag of CISCIS
Related business
Manufacturer
Unknown
Mission
Spacecraft
Bus & Motor
Unknown
Mass
Unknown
Launch date (UTC)
1993-03-26 (33 years ago)
Launch vehicle
Unknown
Launch site
Tyuratam Missile And Space Complex (TTMTR)
Object type
Payload
Rocket body
Debris
Shape & HBR
Unknown shape, 0.1 m
Radar Cross Section
Small (<0.1 m²)

Expand to show TLE details & history
Last TLE update: 6 hours ago

TLE from 6 hours ago
0 SL-16 DEB
1 26968U 93016AJ  25347.01759281  .00004465  00000-0  13525-2 0  9991
2 26968  70.9961 312.5400 0007576 196.9466 226.5589 14.42781764702444
Epoch: 2025-12-13T00:25Z
TLE epoch observation values (Epoch: 2025-12-13T00:25:20.018Z)
Latitude
57.86254°
Longitude
-102.69877°
Altitude
762.241 km
Speed
7.477 km/s
True Right ascension
23h 02m 20s
True Declination
57° 42' 27"
Sunlit
Object was in daylight at epoch
Visualization orbit readout
Latitude
Unknown
Longitude
Unknown
Altitude
Unknown
Speed
Unknown
Apparent Right ascension
Unknown
Apparent Declination
Unknown
Sunlit
N/A
Visualization observer readout
Local Sidereal Time
05:21:55
Azimuth
Unknown
Elevation
Unknown
Doppler factor
Unknown
Orbital elements
Apogee altitude
752.619 km
Perigee altitude
741.822 km
Semi-major axis
7,125.357 km
Eccentricity
0.00076
Inclination
70.9961°
RAAN
312.54°
Arg. of periapsis
196.9466°
True anomaly
226.49591°
Mean anomaly
226.5589°
Eccentric anomaly
226.5274°
Mean motion
3.60855 °/min
Orbital period
99.76 mins
BSTAR
0.0013525
Loading maneuver chart data...
Computing Atmospheric mass density...
Loading historical data...
Loading historical data...
Loading historical data...
Loading historical data...
Loading historical data...
Loading historical data...
Loading historical data...

Documentation

Showing up to 5 results
|